Content
SEND FEEDBACK

Daily
Averages
Monthly
Summary
Thailand

BANGKOK, THAILAND


Home > Asia > Thailand
Elevation: 66 feet     Latitude: 13 44N     Longitude: 100 34E

WEATHER
 
SELECT A DAY
Number of Records: 235,382;   Date Range: 7/1/96 - 7/29/14
 
SHARE

PRINT THIS DATA

[ ← Previous Day ]
WEATHER ALMANAC - MARCH 22, 2013
[ Next Day → ]
[ °C ]   °F
Weather ElementAverageHighLow
Temperature88.5 °F98.6 °F (4:00 pm)82 °F (7:00 am)
Dewpoint72.9 °F75.2 °F (12:30 am)64.4 °F (5:00 pm)
Humidity60.9 %79 % (3:00 am)35 % (1:00 pm)
Barometer29.77 in29.83 in (8:00 am)29.68 in (4:00 pm)
Wind Speed8.9 mph16.1 mph (2:00 pm)
Weather ElementAverage
Visibility6.2 mi
Wind DirectionSSW (193.9 °)

Weather ElementTotal
Precipitation---
Cooling Degree Days25.3 (Base 65)
Growing Degree Days40.3 (Base 50)
Averaged from 51 records on March 22, 2013
WEATHER CONDITIONS BREAKOUT
WIND DIRECTION BREAKOUT
WEATHER BY HOUR - MARCH 22, 2013
[ °C ]   °F
Local TimeTemperatureDewpointHumidityBarometerVisibilityWind DirectionWind SpeedGust SpeedPrecipitationEventsConditions
12:30 AM84.2 °F75.2 °F74 %29.77 in6.2 miSSW (210°)11.5 mphScattered Clouds
1:00 AM84.0 °F75.0 °F68 %29.77 in6.0 miSSW (210°)9.2 mphScattered Clouds
1:00 AM84.2 °F75.2 °F74 %29.74 in6.2 miSSW (210°)9.2 mphScattered Clouds
1:30 AM84.2 °F75.2 °F74 %29.74 in6.2 miSSW (210°)10.4 mphScattered Clouds
2:00 AM84.2 °F75.2 °F74 %29.74 in6.2 miSSW (210°)4.6 mphScattered Clouds
2:30 AM84.2 °F75.2 °F74 %29.74 in6.2 miSSW (210°)5.8 mphScattered Clouds
3:00 AM82.4 °F75.2 °F79 %29.74 in6.2 miSSW (210°)6.9 mphScattered Clouds
3:30 AM82.4 °F75.2 °F79 %29.74 in6.2 miSSW (210°)6.9 mphScattered Clouds
4:00 AM82.4 °F75.2 °F79 %29.74 in6.2 miSouth (190°)5.8 mphScattered Clouds
4:30 AM82.4 °F73.4 °F74 %29.74 in6.2 miCalmScattered Clouds
5:00 AM82.4 °F73.4 °F74 %29.74 in6.2 miSSE (160°)3.5 mphScattered Clouds
5:30 AM82.4 °F75.2 °F79 %29.74 in6.2 miSSE (150°)2.3 mphScattered Clouds
6:00 AM82.4 °F75.2 °F79 %29.77 in6.2 miSSE (150°)3.5 mphScattered Clouds
6:30 AM82.4 °F75.2 °F79 %29.77 in5.6 miSSE (160°)2.3 mphScattered Clouds
7:00 AM82.0 °F71.0 °F63 %29.81 in6.0 miSouth (170°)3.5 mphScattered Clouds
7:00 AM82.4 °F75.2 °F79 %29.80 in6.2 miSouth (170°)3.5 mphScattered Clouds
7:30 AM82.4 °F75.2 °F79 %29.80 in6.2 miSouth (170°)3.5 mphScattered Clouds
8:00 AM84.2 °F75.2 °F74 %29.83 in6.2 miSouth (170°)9.2 mphScattered Clouds
8:30 AM86.0 °F75.2 °F70 %29.83 in6.2 miSouth (190°)9.2 mphScattered Clouds
9:00 AM87.8 °F75.2 °F66 %29.83 in6.2 miSSW (200°)10.4 mphScattered Clouds
9:30 AM89.6 °F73.4 °F59 %29.83 in6.2 miSouth (190°)4.6 mphScattered Clouds
10:00 AM89.6 °F73.4 °F59 %29.83 in6.2 miSSW (200°)5.8 mphScattered Clouds
10:30 AM91.4 °F73.4 °F55 %29.83 in6.2 miSouth (170°)11.5 mphScattered Clouds
11:00 AM93.2 °F71.6 °F49 %29.83 in6.2 miSW (220°)11.5 mphScattered Clouds
11:30 AM93.2 °F71.6 °F49 %29.80 in6.2 miWSW (240°)9.2 mphScattered Clouds
12:00 PM95.0 °F69.8 °F44 %29.80 in6.2 miSW (230°)4.6 mphScattered Clouds
12:30 PM95.0 °F73.4 °F49 %29.80 in6.2 miSouth (190°)9.2 mphScattered Clouds
1:00 PM96.0 °F71.0 °F35 %29.79 in6.0 miSSW (200°)15.0 mphScattered Clouds
1:00 PM96.8 °F71.6 °F44 %29.77 in6.2 miSSW (200°)15.0 mphScattered Clouds
1:30 PM96.8 °F71.6 °F44 %29.77 in6.2 miSW (230°)12.7 mphScattered Clouds
2:00 PM96.8 °F71.6 °F44 %29.74 in6.2 miSouth (190°)16.1 mphScattered Clouds
2:30 PM96.8 °F69.8 °F41 %29.74 in6.2 miSouth (190°)13.8 mphScattered Clouds
3:00 PM96.8 °F71.6 °F44 %29.71 in6.2 miSouth (190°)11.5 mphScattered Clouds
3:30 PM96.8 °F71.6 °F44 %29.71 in6.2 miSW (220°)9.2 mphScattered Clouds
4:00 PM98.6 °F68.0 °F37 %29.68 in6.2 miSouth (170°)6.9 mphScattered Clouds
4:30 PM96.8 °F68.0 °F39 %29.68 in6.2 miSW (220°)10.4 mphScattered Clouds
5:00 PM95.0 °F64.4 °F36 %29.68 in6.2 miSSW (210°)11.5 mphMostly Cloudy
5:30 PM93.2 °F66.2 °F41 %29.71 in6.2 miSSW (210°)15.0 mphMostly Cloudy
6:00 PM91.4 °F68.0 °F46 %29.71 in6.2 miSSW (210°)11.5 mphMostly Cloudy
6:30 PM89.6 °F69.8 °F52 %29.74 in6.2 miSouth (190°)11.5 mphMostly Cloudy
7:00 PM89.0 °F72.0 °F49 %29.76 in6.0 miSouth (190°)11.5 mphScattered Clouds
7:00 PM89.6 °F71.6 °F55 %29.74 in6.2 miSouth (190°)11.5 mphMostly Cloudy
7:30 PM87.8 °F73.4 °F62 %29.74 in6.2 miSSW (200°)9.2 mphMostly Cloudy
8:00 PM87.8 °F75.2 °F66 %29.77 in6.2 miSSW (210°)12.7 mphMostly Cloudy
8:30 PM87.8 °F75.2 °F66 %29.77 in6.2 miSSW (210°)12.7 mphMostly Cloudy
9:00 PM87.8 °F75.2 °F66 %29.77 in6.2 miSSW (210°)12.7 mphMostly Cloudy
9:30 PM86.0 °F75.2 °F70 %29.77 in6.2 miSSW (210°)11.5 mphMostly Cloudy
10:00 PM86.0 °F73.4 °F66 %29.80 in6.2 miSSW (210°)11.5 mphMostly Cloudy
10:30 PM86.0 °F73.4 °F66 %29.80 in6.2 miSSW (210°)9.2 mphMostly Cloudy
11:00 PM86.0 °F73.4 °F66 %29.80 in6.2 miSSW (210°)6.9 mphMostly Cloudy
11:30 PM84.2 °F73.4 °F70 %29.80 in6.2 miSSW (210°)6.9 mphMostly Cloudy
Hourly data recorded from VTBD, located miles away from Bangkok, Thailand







STORIES FROM OUR PARTNERS